Time,TemperatureF,DewpointF,PressureIn,WindDirection,WindDirectionDegrees,WindSpeedMPH,WindSpeedGustMPH,Humidity,HourlyPrecipIn,Conditions,Clouds,dailyrainin,SoftwareType,DateUTC
2013-02-21 00:00:00,26.6,14.2,30.21,ESE,103,0.0,0.0,59,0.00,,,0.00,WUHU216WMR968SP,2013-02-21 05:00:00,
2013-02-21 00:05:00,26.6,14.2,30.21,ESE,103,0.0,0.0,59,0.00,,,0.00,WUHU216WMR968SP,2013-02-21 05:05:00,
2013-02-21 00:10:00,26.4,14.4,30.21,ESE,103,0.0,0.0,60,0.00,,,0.00,WUHU216WMR968SP,2013-02-21 05:10:00,
2013-02-21 00:15:00,26.8,14.4,30.21,ESE,103,0.0,0.0,59,0.00,,,0.00,WUHU216WMR968SP,2013-02-21 05:15:00,
2013-02-21 00:20:00,27.1,14.7,30.21,ESE,103,0.0,0.0,59,0.00,,,0.00,WUHU216WMR968SP,2013-02-21 05:20:00,
2013-02-21 00:25:00,27.5,15.5,30.21,ESE,103,0.0,0.0,60,0.00,,,0.00,WUHU216WMR968SP,2013-02-21 05:25:00,
2013-02-21 00:30:00,27.5,15.5,30.21,ESE,103,0.0,0.0,60,0.00,,,0.00,WUHU216WMR968SP,2013-02-21 05:30:00,
2013-02-21 00:35:00,27.7,16.0,30.18,ESE,103,0.0,0.0,61,0.00,,,0.00,WUHU216WMR968SP,2013-02-21 05:35:00,
2013-02-21 00:40:00,27.7,16.0,30.18,ESE,103,0.0,0.0,61,0.00,,,0.00,WUHU216WMR968SP,2013-02-21 05:40:00,
2013-02-21 00:45:00,27.5,15.9,30.18,ESE,103,0.0,0.0,61,0.00,,,0.00,WUHU216WMR968SP,2013-02-21 05:45:00,
2013-02-21 00:50:00,27.5,15.5,30.21,ESE,103,0.0,0.0,60,0.00,,,0.00,WUHU216WMR968SP,2013-02-21 05:50:00,
2013-02-21 00:55:00,27.7,15.7,30.21,ESE,103,0.0,0.0,60,0.00,,,0.00,WUHU216WMR968SP,2013-02-21 05:55:00,
2013-02-21 01:00:00,28.0,15.5,30.21,ESE,103,0.0,0.0,59,0.00,,,0.00,WUHU216WMR968SP,2013-02-21 06:00:00,
2013-02-21 01:05:00,28.0,15.1,30.21,ESE,103,0.0,0.0,58,0.00,,,0.00,WUHU216WMR968SP,2013-02-21 06:05:00,
2013-02-21 01:10:00,28.0,15.1,30.21,ESE,103,0.0,0.0,58,0.00,,,0.00,WUHU216WMR968SP,2013-02-21 06:10:00,
2013-02-21 01:15:00,28.0,15.1,30.21,ESE,103,0.0,0.0,58,0.00,,,0.00,WUHU216WMR968SP,2013-02-21 06:15:00,
2013-02-21 01:20:00,27.9,15.1,30.21,ESE,103,0.0,0.0,58,0.00,,,0.00,WUHU216WMR968SP,2013-02-21 06:20:00,
2013-02-21 01:25:00,27.9,14.6,30.21,ESE,103,0.0,0.0,57,0.00,,,0.00,WUHU216WMR968SP,2013-02-21 06:25:00,
2013-02-21 01:30:00,27.7,14.9,30.21,ESE,103,0.0,0.0,58,0.00,,,0.00,WUHU216WMR968SP,2013-02-21 06:30:00,
2013-02-21 01:35:00,27.3,14.9,30.21,ESE,103,0.0,0.0,59,0.00,,,0.00,WUHU216WMR968SP,2013-02-21 06:35:00,
2013-02-21 01:40:00,27.3,14.9,30.21,ESE,103,0.0,0.0,59,0.00,,,0.00,WUHU216WMR968SP,2013-02-21 06:40:00,
2013-02-21 01:45:00,27.1,14.7,30.21,ESE,103,0.0,0.0,59,0.00,,,0.00,WUHU216WMR968SP,2013-02-21 06:45:00,
2013-02-21 01:50:00,27.0,14.6,30.21,ESE,103,0.0,0.0,59,0.00,,,0.00,WUHU216WMR968SP,2013-02-21 06:50:00,
2013-02-21 01:55:00,26.8,14.8,30.21,ESE,103,0.0,0.0,60,0.00,,,0.00,WUHU216WMR968SP,2013-02-21 06:55:00,
2013-02-21 02:00:00,26.6,15.0,30.21,ESE,103,0.0,0.0,61,0.00,,,0.00,WUHU216WMR968SP,2013-02-21 07:00:00,
2013-02-21 02:05:00,26.6,15.0,30.21,ESE,103,0.0,0.0,61,0.00,,,0.00,WUHU216WMR968SP,2013-02-21 07:05:00,
2013-02-21 02:10:00,26.6,15.0,30.21,ESE,103,0.0,0.0,61,0.00,,,0.00,WUHU216WMR968SP,2013-02-21 07:10:00,
2013-02-21 02:15:00,26.6,15.4,30.21,ESE,103,0.0,0.0,62,0.00,,,0.00,WUHU216WMR968SP,2013-02-21 07:15:00,
2013-02-21 02:20:00,26.6,15.4,30.21,ESE,103,0.0,0.0,62,0.00,,,0.00,WUHU216WMR968SP,2013-02-21 07:20:00,
2013-02-21 02:25:00,26.8,15.2,30.21,ESE,103,0.0,0.0,61,0.00,,,0.00,WUHU216WMR968SP,2013-02-21 07:25:00,
2013-02-21 02:30:00,27.1,15.1,30.21,ESE,103,0.0,0.0,60,0.00,,,0.00,WUHU216WMR968SP,2013-02-21 07:30:00,
2013-02-21 02:35:00,27.5,15.1,30.18,ESE,103,0.0,0.0,59,0.00,,,0.00,WUHU216WMR968SP,2013-02-21 07:35:00,
2013-02-21 02:40:00,27.7,14.5,30.18,ESE,103,0.0,0.0,57,0.00,,,0.00,WUHU216WMR968SP,2013-02-21 07:40:00,
2013-02-21 02:45:00,27.7,14.5,30.18,ESE,103,0.0,0.0,57,0.00,,,0.00,WUHU216WMR968SP,2013-02-21 07:45:00,
2013-02-21 02:50:00,27.9,15.1,30.18,ESE,103,0.0,0.0,58,0.00,,,0.00,WUHU216WMR968SP,2013-02-21 07:50:00,
2013-02-21 02:55:00,27.9,15.1,30.18,ESE,103,0.0,0.0,58,0.00,,,0.00,WUHU216WMR968SP,2013-02-21 07:55:00,
2013-02-21 03:00:00,27.9,15.5,30.18,ESE,103,0.0,0.0,59,0.00,,,0.00,WUHU216WMR968SP,2013-02-21 08:00:00,
2013-02-21 03:05:00,27.9,15.1,30.18,ESE,103,0.0,0.0,58,0.00,,,0.00,WUHU216WMR968SP,2013-02-21 08:05:00,
2013-02-21 03:10:00,27.9,15.1,30.18,ESE,103,0.0,0.0,58,0.00,,,0.00,WUHU216WMR968SP,2013-02-21 08:10:00,
2013-02-21 03:15:00,27.7,14.9,30.18,ESE,103,0.0,0.0,58,0.00,,,0.00,WUHU216WMR968SP,2013-02-21 08:15:00,
2013-02-21 03:20:00,27.1,14.7,30.21,ESE,103,0.0,0.0,59,0.00,,,0.00,WUHU216WMR968SP,2013-02-21 08:20:00,
2013-02-21 03:25:00,26.4,14.8,30.21,ESE,108,0.0,0.0,61,0.00,,,0.00,WUHU216WMR968SP,2013-02-21 08:25:00,
2013-02-21 03:30:00,26.2,14.6,30.21,ESE,110,0.0,0.0,61,0.00,,,0.00,WUHU216WMR968SP,2013-02-21 08:30:00,
2013-02-21 03:35:00,26.2,14.6,30.21,ESE,110,0.0,0.0,61,0.00,,,0.00,WUHU216WMR968SP,2013-02-21 08:35:00,
2013-02-21 03:40:00,26.1,14.9,30.21,ESE,110,0.0,0.0,62,0.00,,,0.00,WUHU216WMR968SP,2013-02-21 08:40:00,
2013-02-21 03:45:00,25.9,15.1,30.21,ESE,110,0.0,0.0,63,0.00,,,0.00,WUHU216WMR968SP,2013-02-21 08:45:00,
2013-02-21 03:50:00,25.7,14.5,30.18,ESE,110,0.0,0.0,62,0.00,,,0.00,WUHU216WMR968SP,2013-02-21 08:50:00,
2013-02-21 03:55:00,25.9,15.1,30.18,ESE,110,0.0,0.0,63,0.00,,,0.00,WUHU216WMR968SP,2013-02-21 08:55:00,
2013-02-21 04:00:00,25.5,15.1,30.18,ESE,110,0.0,0.0,64,0.00,,,0.00,WUHU216WMR968SP,2013-02-21 09:00:00,
2013-02-21 04:05:00,25.7,15.3,30.18,ESE,110,0.0,0.0,64,0.00,,,0.00,WUHU216WMR968SP,2013-02-21 09:05:00,
2013-02-21 04:10:00,25.9,15.4,30.18,ESE,110,0.0,0.0,64,0.00,,,0.00,WUHU216WMR968SP,2013-02-21 09:10:00,
2013-02-21 04:15:00,25.9,15.8,30.18,ESE,110,0.0,0.0,65,0.00,,,0.00,WUHU216WMR968SP,2013-02-21 09:15:00,
2013-02-21 04:20:00,25.9,15.4,30.18,ESE,110,0.0,0.0,64,0.00,,,0.00,WUHU216WMR968SP,2013-02-21 09:20:00,
2013-02-21 04:25:00,26.1,16.0,30.18,ESE,110,0.0,0.0,65,0.00,,,0.00,WUHU216WMR968SP,2013-02-21 09:25:00,
2013-02-21 04:30:00,26.2,16.1,30.18,ESE,110,0.0,0.0,65,0.00,,,0.00,WUHU216WMR968SP,2013-02-21 09:30:00,
2013-02-21 04:35:00,26.6,16.5,30.18,ESE,110,0.0,0.0,65,0.00,,,0.00,WUHU216WMR968SP,2013-02-21 09:35:00,
2013-02-21 04:40:00,27.0,16.5,30.18,ESE,110,0.0,0.0,64,0.00,,,0.00,WUHU216WMR968SP,2013-02-21 09:40:00,
2013-02-21 04:45:00,27.1,16.6,30.18,ESE,110,0.0,0.0,64,0.00,,,0.00,WUHU216WMR968SP,2013-02-21 09:45:00,
2013-02-21 04:50:00,27.3,17.1,30.21,ESE,110,0.0,0.0,65,0.00,,,0.00,WUHU216WMR968SP,2013-02-21 09:50:00,
2013-02-21 04:55:00,27.5,17.3,30.21,ESE,110,0.0,0.0,65,0.00,,,0.00,WUHU216WMR968SP,2013-02-21 09:55:00,
2013-02-21 05:00:00,27.9,17.7,30.21,ESE,110,0.0,0.0,65,0.00,,,0.00,WUHU216WMR968SP,2013-02-21 10:00:00,
2013-02-21 05:05:00,27.9,17.7,30.18,ESE,110,0.0,0.0,65,0.00,,,0.00,WUHU216WMR968SP,2013-02-21 10:05:00,
2013-02-21 05:10:00,27.9,17.7,30.18,ESE,110,0.0,0.0,65,0.00,,,0.00,WUHU216WMR968SP,2013-02-21 10:10:00,
2013-02-21 05:15:00,27.9,17.4,30.18,ESE,113,0.0,0.0,64,0.00,,,0.00,WUHU216WMR968SP,2013-02-21 10:15:00,
2013-02-21 05:20:00,28.2,17.3,30.21,ESE,113,0.0,0.0,63,0.00,,,0.00,WUHU216WMR968SP,2013-02-21 10:20:00,
2013-02-21 05:25:00,28.2,17.3,30.21,ESE,113,0.0,0.0,63,0.00,,,0.00,WUHU216WMR968SP,2013-02-21 10:25:00,
2013-02-21 05:30:00,28.2,17.3,30.21,ESE,113,0.0,0.0,63,0.00,,,0.00,WUHU216WMR968SP,2013-02-21 10:30:00,
2013-02-21 05:35:00,28.2,17.3,30.21,ESE,113,0.0,0.0,63,0.00,,,0.00,WUHU216WMR968SP,2013-02-21 10:35:00,
2013-02-21 05:40:00,28.2,16.9,30.21,ESE,113,0.0,0.0,62,0.00,,,0.00,WUHU216WMR968SP,2013-02-21 10:40:00,
2013-02-21 05:45:00,28.0,16.7,30.21,ESE,113,0.0,0.0,62,0.00,,,0.00,WUHU216WMR968SP,2013-02-21 10:45:00,
2013-02-21 05:50:00,27.9,16.6,30.21,ESE,113,0.0,0.0,62,0.00,,,0.00,WUHU216WMR968SP,2013-02-21 10:50:00,
2013-02-21 05:55:00,27.9,16.2,30.21,ESE,113,0.0,0.0,61,0.00,,,0.00,WUHU216WMR968SP,2013-02-21 10:55:00,
2013-02-21 06:00:00,27.7,16.4,30.21,ESE,113,0.0,0.0,62,0.00,,,0.00,WUHU216WMR968SP,2013-02-21 11:00:00,
2013-02-21 06:05:00,27.7,16.4,30.21,ESE,113,0.0,0.0,62,0.00,,,0.00,WUHU216WMR968SP,2013-02-21 11:05:00,
2013-02-21 06:10:00,27.3,16.4,30.21,ESE,112,0.0,0.0,63,0.00,,,0.00,WUHU216WMR968SP,2013-02-21 11:10:00,
2013-02-21 06:15:00,27.1,15.9,30.21,ESE,112,0.0,0.0,62,0.00,,,0.00,WUHU216WMR968SP,2013-02-21 11:15:00,
2013-02-21 06:20:00,27.3,16.0,30.21,ESE,112,0.0,0.0,62,0.00,,,0.00,WUHU216WMR968SP,2013-02-21 11:20:00,
2013-02-21 06:25:00,27.1,15.9,30.21,ESE,112,0.0,0.0,62,0.00,,,0.00,WUHU216WMR968SP,2013-02-21 11:25:00,
2013-02-21 06:30:00,27.0,15.8,30.21,ESE,112,0.0,0.0,62,0.00,,,0.00,WUHU216WMR968SP,2013-02-21 11:30:00,
2013-02-21 06:35:00,27.0,15.4,30.21,ESE,112,0.0,0.0,61,0.00,,,0.00,WUHU216WMR968SP,2013-02-21 11:35:00,
2013-02-21 06:40:00,27.1,15.5,30.21,ESE,112,0.0,0.0,61,0.00,,,0.00,WUHU216WMR968SP,2013-02-21 11:40:00,
2013-02-21 06:46:00,27.3,15.7,30.21,ESE,110,0.0,0.0,61,0.00,,,0.00,WUHU216WMR968SP,2013-02-21 11:46:00,
2013-02-21 06:51:00,27.3,15.7,30.21,ESE,114,0.0,0.0,61,0.00,,,0.00,WUHU216WMR968SP,2013-02-21 11:51:00,
2013-02-21 06:56:00,27.3,15.7,30.21,ESE,120,0.0,4.6,61,0.00,,,0.00,WUHU216WMR968SP,2013-02-21 11:56:00,
2013-02-21 07:01:00,27.5,15.9,30.21,ESE,120,0.0,4.6,61,0.00,,,0.00,WUHU216WMR968SP,2013-02-21 12:01:00,
2013-02-21 07:06:00,27.7,16.0,30.21,ESE,120,0.0,0.0,61,0.00,,,0.00,WUHU216WMR968SP,2013-02-21 12:06:00,
2013-02-21 07:11:00,27.7,16.0,30.21,ESE,120,0.0,0.0,61,0.00,,,0.00,WUHU216WMR968SP,2013-02-21 12:11:00,
2013-02-21 07:16:00,27.7,16.0,30.21,ESE,119,0.0,0.0,61,0.00,,,0.00,WUHU216WMR968SP,2013-02-21 12:16:00,
2013-02-21 07:21:00,27.7,16.0,30.21,ESE,119,0.0,0.0,61,0.00,,,0.00,WUHU216WMR968SP,2013-02-21 12:21:00,
2013-02-21 07:26:00,27.7,16.0,30.21,ESE,117,0.0,0.0,61,0.00,,,0.00,WUHU216WMR968SP,2013-02-21 12:26:00,
2013-02-21 07:31:00,27.7,16.0,30.21,ESE,118,0.0,0.0,61,0.00,,,0.00,WUHU216WMR968SP,2013-02-21 12:31:00,
2013-02-21 07:36:00,27.7,16.0,30.21,ESE,118,0.0,0.0,61,0.00,,,0.00,WUHU216WMR968SP,2013-02-21 12:36:00,
2013-02-21 07:41:00,27.5,15.5,30.21,ESE,118,0.0,0.0,60,0.00,,,0.00,WUHU216WMR968SP,2013-02-21 12:41:00,
2013-02-21 07:46:00,27.5,15.5,30.21,ESE,118,0.0,0.0,60,0.00,,,0.00,WUHU216WMR968SP,2013-02-21 12:46:00,
2013-02-21 07:51:00,27.5,15.5,30.24,ESE,118,0.0,0.0,60,0.00,,,0.00,WUHU216WMR968SP,2013-02-21 12:51:00,
2013-02-21 07:56:00,27.7,15.7,30.24,ESE,118,0.0,0.0,60,0.00,,,0.00,WUHU216WMR968SP,2013-02-21 12:56:00,
2013-02-21 08:01:00,27.9,15.8,30.24,ESE,118,0.0,0.0,60,0.00,,,0.00,WUHU216WMR968SP,2013-02-21 13:01:00,
2013-02-21 08:06:00,27.9,16.2,30.24,ESE,118,0.0,0.0,61,0.00,,,0.00,WUHU216WMR968SP,2013-02-21 13:06:00,
2013-02-21 08:11:00,28.4,17.1,30.24,ESE,118,0.0,0.0,62,0.00,,,0.00,WUHU216WMR968SP,2013-02-21 13:11:00,
2013-02-21 08:16:00,29.3,17.6,30.24,ESE,109,0.0,0.0,61,0.00,,,0.00,WUHU216WMR968SP,2013-02-21 13:16:00,
2013-02-21 08:21:00,30.6,18.4,30.24,ESE,113,0.0,0.0,60,0.00,,,0.00,WUHU216WMR968SP,2013-02-21 13:21:00,
2013-02-21 08:26:00,31.5,18.4,30.24,ESE,120,0.0,0.0,58,0.00,,,0.00,WUHU216WMR968SP,2013-02-21 13:26:00,
2013-02-21 08:31:00,31.6,18.1,30.24,East,91,0.0,6.0,57,0.00,,,0.00,WUHU216WMR968SP,2013-02-21 13:31:00,
2013-02-21 08:36:00,32.2,18.7,30.24,ENE,63,0.0,6.0,57,0.00,,,0.00,WUHU216WMR968SP,2013-02-21 13:36:00,
2013-02-21 08:41:00,33.3,19.7,30.24,East,79,0.0,5.4,57,0.00,,,0.00,WUHU216WMR968SP,2013-02-21 13:41:00,
2013-02-21 08:46:00,34.0,19.5,30.24,NE,51,0.0,0.0,55,0.00,,,0.00,WUHU216WMR968SP,2013-02-21 13:46:00,
2013-02-21 08:51:00,34.5,19.6,30.24,NE,48,3.3,5.4,54,0.00,,,0.00,WUHU216WMR968SP,2013-02-21 13:51:00,
2013-02-21 08:56:00,34.5,19.1,30.24,NE,35,4.1,7.4,53,0.00,,,0.00,WUHU216WMR968SP,2013-02-21 13:56:00,
2013-02-21 09:01:00,34.7,18.8,30.24,NNE,25,4.6,7.4,52,0.00,,,0.00,WUHU216WMR968SP,2013-02-21 14:01:00,
2013-02-21 09:06:00,35.1,19.2,30.24,ENE,69,0.0,7.4,52,0.00,,,0.00,WUHU216WMR968SP,2013-02-21 14:06:00,
2013-02-21 09:11:00,35.6,19.7,30.24,ESE,111,0.0,5.4,52,0.00,,,0.00,WUHU216WMR968SP,2013-02-21 14:11:00,
2013-02-21 09:16:00,35.8,19.4,30.24,North,7,0.0,6.0,51,0.00,,,0.00,WUHU216WMR968SP,2013-02-21 14:16:00,
2013-02-21 09:21:00,36.3,19.8,30.24,NE,34,0.0,6.0,51,0.00,,,0.00,WUHU216WMR968SP,2013-02-21 14:21:00,
2013-02-21 09:26:00,36.7,19.7,30.24,NW,320,4.1,6.0,50,0.00,,,0.00,WUHU216WMR968SP,2013-02-21 14:26:00,
2013-02-21 09:31:00,37.2,20.2,30.24,ENE,73,0.0,6.0,50,0.00,,,0.00,WUHU216WMR968SP,2013-02-21 14:31:00,
2013-02-21 09:36:00,37.8,20.3,30.24,SE,124,0.0,5.4,49,0.00,,,0.00,WUHU216WMR968SP,2013-02-21 14:36:00,
2013-02-21 09:41:00,38.7,20.6,30.24,ESE,104,4.6,5.4,48,0.00,,,0.00,WUHU216WMR968SP,2013-02-21 14:41:00,
2013-02-21 09:46:00,38.7,19.6,30.24,SE,141,4.6,8.7,46,0.00,,,0.00,WUHU216WMR968SP,2013-02-21 14:46:00,
2013-02-21 09:51:00,39.0,19.8,30.24,East,96,3.3,8.7,46,0.00,,,0.00,WUHU216WMR968SP,2013-02-21 14:51:00,
2013-02-21 09:56:00,39.2,19.5,30.24,ENE,57,0.0,8.7,45,0.00,,,0.00,WUHU216WMR968SP,2013-02-21 14:56:00,
2013-02-21 10:01:00,40.3,20.5,30.24,ESE,106,3.3,8.1,45,0.00,,,0.00,WUHU216WMR968SP,2013-02-21 15:01:00,
2013-02-21 10:06:00,39.7,19.4,30.24,NE,39,6.8,8.1,44,0.00,,,0.00,WUHU216WMR968SP,2013-02-21 15:06:00,
2013-02-21 10:11:00,40.6,20.2,30.24,ESE,109,0.0,8.1,44,0.00,,,0.00,WUHU216WMR968SP,2013-02-21 15:11:00,
2013-02-21 10:16:00,40.8,20.4,30.24,NE,37,4.6,7.4,44,0.00,,,0.00,WUHU216WMR968SP,2013-02-21 15:16:00,
2013-02-21 10:21:00,41.2,20.2,30.24,NNE,20,3.3,9.5,43,0.00,,,0.00,WUHU216WMR968SP,2013-02-21 15:21:00,
2013-02-21 10:26:00,41.2,19.7,30.24,North,11,6.0,9.5,42,0.00,,,0.00,WUHU216WMR968SP,2013-02-21 15:26:00,
2013-02-21 10:31:00,42.4,20.7,30.24,NE,34,4.1,8.1,42,0.00,,,0.00,WUHU216WMR968SP,2013-02-21 15:31:00,
2013-02-21 10:36:00,42.6,20.9,30.21,East,91,4.1,8.1,42,0.00,,,0.00,WUHU216WMR968SP,2013-02-21 15:36:00,
2013-02-21 10:41:00,43.0,20.7,30.21,ESE,106,6.0,9.5,41,0.00,,,0.00,WUHU216WMR968SP,2013-02-21 15:41:00,
2013-02-21 10:46:00,42.3,20.1,30.21,ENE,68,5.4,9.5,41,0.00,,,0.00,WUHU216WMR968SP,2013-02-21 15:46:00,
2013-02-21 10:51:00,43.5,21.2,30.21,ENE,61,3.3,8.1,41,0.00,,,0.00,WUHU216WMR968SP,2013-02-21 15:51:00,
2013-02-21 10:56:00,44.6,22.2,30.21,SE,135,0.0,8.1,41,0.00,,,0.00,WUHU216WMR968SP,2013-02-21 15:56:00,
2013-02-21 11:01:00,45.3,22.2,30.21,East,85,3.3,7.4,40,0.00,,,0.00,WUHU216WMR968SP,2013-02-21 16:01:00,
2013-02-21 11:06:00,45.7,22.6,30.21,ENE,60,6.8,8.7,40,0.00,,,0.00,WUHU216WMR968SP,2013-02-21 16:06:00,
2013-02-21 11:11:00,45.9,22.7,30.21,NE,39,3.3,8.7,40,0.00,,,0.00,WUHU216WMR968SP,2013-02-21 16:11:00,
2013-02-21 11:16:00,46.0,22.2,30.21,ESE,119,4.6,7.4,39,0.00,,,0.00,WUHU216WMR968SP,2013-02-21 16:16:00,
2013-02-21 11:21:00,46.8,22.9,30.21,NNW,333,4.1,7.4,39,0.00,,,0.00,WUHU216WMR968SP,2013-02-21 16:21:00,
2013-02-21 11:26:00,47.7,23.7,30.21,ENE,57,4.6,6.0,39,0.00,,,0.00,WUHU216WMR968SP,2013-02-21 16:26:00,
2013-02-21 11:31:00,47.3,23.4,30.21,ENE,76,3.3,7.4,39,0.00,,,0.00,WUHU216WMR968SP,2013-02-21 16:31:00,
2013-02-21 11:36:00,47.7,23.1,30.18,ESE,110,0.0,7.4,38,0.00,,,0.00,WUHU216WMR968SP,2013-02-21 16:36:00,
2013-02-21 11:41:00,46.9,22.4,30.18,ESE,114,4.1,9.5,38,0.00,,,0.00,WUHU216WMR968SP,2013-02-21 16:41:00,
2013-02-21 11:46:00,47.1,22.6,30.18,East,98,4.6,9.5,38,0.00,,,0.00,WUHU216WMR968SP,2013-02-21 16:46:00,
2013-02-21 11:51:00,46.9,22.4,30.15,ENE,60,4.6,8.7,38,0.00,,,0.00,WUHU216WMR968SP,2013-02-21 16:51:00,
2013-02-21 11:56:00,46.6,21.5,30.15,SW,215,6.0,10.8,37,0.00,,,0.00,WUHU216WMR968SP,2013-02-21 16:56:00,
2013-02-21 12:01:00,47.8,23.2,30.15,NNE,28,3.3,10.8,38,0.00,,,0.00,WUHU216WMR968SP,2013-02-21 17:01:00,
2013-02-21 12:06:00,48.7,23.4,30.18,North,0,0.0,8.7,37,0.00,,,0.00,WUHU216WMR968SP,2013-02-21 17:06:00,
2013-02-21 12:11:00,49.3,23.9,30.18,SE,142,6.8,8.7,37,0.00,,,0.00,WUHU216WMR968SP,2013-02-21 17:11:00,
2013-02-21 12:16:00,48.9,23.5,30.18,East,100,4.6,8.7,37,0.00,,,0.00,WUHU216WMR968SP,2013-02-21 17:16:00,
2013-02-21 12:21:00,49.6,24.2,30.15,North,0,0.0,8.7,37,0.00,,,0.00,WUHU216WMR968SP,2013-02-21 17:21:00,
2013-02-21 12:26:00,49.8,24.3,30.15,NNW,335,4.1,8.7,37,0.00,,,0.00,WUHU216WMR968SP,2013-02-21 17:26:00,
2013-02-21 12:31:00,49.8,24.3,30.15,SSW,195,0.0,8.7,37,0.00,,,0.00,WUHU216WMR968SP,2013-02-21 17:31:00,
2013-02-21 12:36:00,51.1,24.8,30.15,East,83,3.3,9.5,36,0.00,,,0.00,WUHU216WMR968SP,2013-02-21 17:36:00,
2013-02-21 12:41:00,50.7,24.5,30.15,ESE,117,6.0,9.5,36,0.00,,,0.00,WUHU216WMR968SP,2013-02-21 17:41:00,
2013-02-21 12:46:00,50.7,24.5,30.15,SW,221,0.0,9.5,36,0.00,,,0.00,WUHU216WMR968SP,2013-02-21 17:46:00,
2013-02-21 12:51:00,51.1,24.8,30.15,NE,44,3.3,6.0,36,0.00,,,0.00,WUHU216WMR968SP,2013-02-21 17:51:00,
2013-02-21 12:56:00,51.1,24.8,30.15,NW,307,3.3,6.0,36,0.00,,,0.00,WUHU216WMR968SP,2013-02-21 17:56:00,
2013-02-21 13:01:00,52.0,25.6,30.15,NE,52,4.1,8.1,36,0.00,,,0.00,WUHU216WMR968SP,2013-02-21 18:01:00,
2013-02-21 13:06:00,52.0,25.6,30.15,NNW,327,4.1,8.1,36,0.00,,,0.00,WUHU216WMR968SP,2013-02-21 18:06:00,
2013-02-21 13:11:00,51.3,25.7,30.15,WNW,293,3.3,6.0,37,0.00,,,0.00,WUHU216WMR968SP,2013-02-21 18:11:00,
2013-02-21 13:16:00,50.4,24.2,30.15,NW,321,4.1,6.0,36,0.00,,,0.00,WUHU216WMR968SP,2013-02-21 18:16:00,
2013-02-21 13:21:00,50.0,24.5,30.12,NW,326,0.0,6.0,37,0.00,,,0.00,WUHU216WMR968SP,2013-02-21 18:21:00,
2013-02-21 13:26:00,50.2,24.7,30.12,WNW,294,0.0,6.0,37,0.00,,,0.00,WUHU216WMR968SP,2013-02-21 18:26:00,
2013-02-21 13:31:00,50.5,25.0,30.12,NNE,26,3.3,6.0,37,0.00,,,0.00,WUHU216WMR968SP,2013-02-21 18:31:00,
2013-02-21 13:36:00,51.1,25.5,30.12,NW,322,3.3,6.0,37,0.00,,,0.00,WUHU216WMR968SP,2013-02-21 18:36:00,
2013-02-21 13:41:00,51.6,25.9,30.12,NE,47,0.0,6.0,37,0.00,,,0.00,WUHU216WMR968SP,2013-02-21 18:41:00,
2013-02-21 13:46:00,52.0,25.6,30.12,NNW,331,0.0,6.0,36,0.00,,,0.00,WUHU216WMR968SP,2013-02-21 18:46:00,
2013-02-21 13:51:00,52.3,25.9,30.12,North,11,3.3,6.0,36,0.00,,,0.00,WUHU216WMR968SP,2013-02-21 18:51:00,
2013-02-21 13:56:00,52.5,26.1,30.12,NNW,332,0.0,6.0,36,0.00,,,0.00,WUHU216WMR968SP,2013-02-21 18:56:00,
2013-02-21 14:01:00,52.2,25.8,30.12,NE,37,0.0,4.6,36,0.00,,,0.00,WUHU216WMR968SP,2013-02-21 19:01:00,
2013-02-21 14:06:00,51.6,25.3,30.12,NNE,20,0.0,6.0,36,0.00,,,0.00,WUHU216WMR968SP,2013-02-21 19:06:00,
2013-02-21 14:11:00,51.8,25.5,30.12,NE,44,0.0,6.0,36,0.00,,,0.00,WUHU216WMR968SP,2013-02-21 19:11:00,
2013-02-21 14:16:00,52.3,25.9,30.12,NE,36,0.0,4.6,36,0.00,,,0.00,WUHU216WMR968SP,2013-02-21 19:16:00,
2013-02-21 14:21:00,52.2,25.8,30.12,NW,324,3.3,6.0,36,0.00,,,0.00,WUHU216WMR968SP,2013-02-21 19:21:00,
2013-02-21 14:26:00,52.2,25.8,30.12,ENE,60,0.0,6.0,36,0.00,,,0.00,WUHU216WMR968SP,2013-02-21 19:26:00,
2013-02-21 14:31:00,52.0,25.6,30.12,NNE,25,3.3,4.1,36,0.00,,,0.00,WUHU216WMR968SP,2013-02-21 19:31:00,
2013-02-21 14:36:00,52.5,26.1,30.09,NNE,23,0.0,4.1,36,0.00,,,0.00,WUHU216WMR968SP,2013-02-21 19:36:00,
2013-02-21 14:41:00,52.3,25.9,30.09,North,11,0.0,4.1,36,0.00,,,0.00,WUHU216WMR968SP,2013-02-21 19:41:00,
2013-02-21 14:46:00,52.5,26.1,30.09,NNW,340,0.0,4.6,36,0.00,,,0.00,WUHU216WMR968SP,2013-02-21 19:46:00,
2013-02-21 14:51:00,52.9,26.4,30.09,NNW,333,3.3,4.6,36,0.00,,,0.00,WUHU216WMR968SP,2013-02-21 19:51:00,
2013-02-21 14:56:00,52.9,26.4,30.09,NNE,32,0.0,4.6,36,0.00,,,0.00,WUHU216WMR968SP,2013-02-21 19:56:00,
2013-02-21 15:01:00,52.5,26.1,30.09,NNW,331,0.0,6.0,36,0.00,,,0.00,WUHU216WMR968SP,2013-02-21 20:01:00,
2013-02-21 15:06:00,52.3,25.9,30.06,NE,56,3.3,6.0,36,0.00,,,0.00,WUHU216WMR968SP,2013-02-21 20:06:00,
2013-02-21 15:11:00,52.7,26.3,30.06,NNE,30,0.0,6.0,36,0.00,,,0.00,WUHU216WMR968SP,2013-02-21 20:11:00,
2013-02-21 15:16:00,53.1,26.6,30.06,SE,136,0.0,6.0,36,0.00,,,0.00,WUHU216WMR968SP,2013-02-21 20:16:00,
2013-02-21 15:21:00,53.4,26.2,30.06,ESE,107,4.6,6.8,35,0.00,,,0.00,WUHU216WMR968SP,2013-02-21 20:21:00,
2013-02-21 15:26:00,53.2,26.0,30.06,North,357,3.3,6.8,35,0.00,,,0.00,WUHU216WMR968SP,2013-02-21 20:26:00,
2013-02-21 15:31:00,53.2,26.0,30.06,NNE,28,0.0,6.0,35,0.00,,,0.00,WUHU216WMR968SP,2013-02-21 20:31:00,
2013-02-21 15:36:00,53.1,25.2,30.03,ESE,104,5.4,7.4,34,0.00,,,0.00,WUHU216WMR968SP,2013-02-21 20:36:00,
2013-02-21 15:41:00,52.9,24.3,30.03,ESE,104,0.0,7.4,33,0.00,,,0.00,WUHU216WMR968SP,2013-02-21 20:41:00,
2013-02-21 15:46:00,52.5,24.0,30.03,East,91,3.3,7.4,33,0.00,,,0.00,WUHU216WMR968SP,2013-02-21 20:46:00,
2013-02-21 15:51:00,52.2,23.0,30.06,ENE,66,4.6,9.5,32,0.00,,,0.00,WUHU216WMR968SP,2013-02-21 20:51:00,
2013-02-21 15:56:00,52.2,23.0,30.06,East,82,5.4,9.5,32,0.00,,,0.00,WUHU216WMR968SP,2013-02-21 20:56:00,
2013-02-21 16:01:00,51.8,21.9,30.06,East,100,6.0,12.5,31,0.00,,,0.00,WUHU216WMR968SP,2013-02-21 21:01:00,
2013-02-21 16:06:00,51.8,21.9,30.03,NNE,27,4.1,12.5,31,0.00,,,0.00,WUHU216WMR968SP,2013-02-21 21:06:00,
2013-02-21 16:11:00,52.0,22.8,30.03,NE,50,4.6,8.7,32,0.00,,,0.00,WUHU216WMR968SP,2013-02-21 21:11:00,
2013-02-21 16:16:00,52.0,22.8,30.03,ESE,113,6.0,9.5,32,0.00,,,0.00,WUHU216WMR968SP,2013-02-21 21:16:00,
2013-02-21 16:21:00,51.8,22.6,30.03,ESE,123,6.0,9.5,32,0.00,,,0.00,WUHU216WMR968SP,2013-02-21 21:21:00,
2013-02-21 16:26:00,51.6,22.5,30.03,East,98,4.6,8.7,32,0.00,,,0.00,WUHU216WMR968SP,2013-02-21 21:26:00,
2013-02-21 16:31:00,51.6,22.5,30.03,East,101,6.0,8.1,32,0.00,,,0.00,WUHU216WMR968SP,2013-02-21 21:31:00,
2013-02-21 16:36:00,51.6,22.5,30.03,ENE,75,6.0,8.7,32,0.00,,,0.00,WUHU216WMR968SP,2013-02-21 21:36:00,
2013-02-21 16:41:00,51.4,22.3,30.03,ENE,69,5.4,8.7,32,0.00,,,0.00,WUHU216WMR968SP,2013-02-21 21:41:00,
2013-02-21 16:46:00,51.3,22.9,30.03,East,98,0.0,8.1,33,0.00,,,0.00,WUHU216WMR968SP,2013-02-21 21:46:00,
2013-02-21 16:51:00,51.3,23.6,30.00,ENE,60,0.0,6.0,34,0.00,,,0.00,WUHU216WMR968SP,2013-02-21 21:51:00,
2013-02-21 16:56:00,51.1,23.5,30.00,NE,35,0.0,6.0,34,0.00,,,0.00,WUHU216WMR968SP,2013-02-21 21:56:00,
2013-02-21 17:01:00,50.9,23.3,30.00,East,95,4.6,6.0,34,0.00,,,0.00,WUHU216WMR968SP,2013-02-21 22:01:00,
2013-02-21 17:06:00,50.7,23.1,30.00,ENE,72,4.1,6.0,34,0.00,,,0.00,WUHU216WMR968SP,2013-02-21 22:06:00,
2013-02-21 17:11:00,50.5,22.9,30.00,NE,41,0.0,6.0,34,0.00,,,0.00,WUHU216WMR968SP,2013-02-21 22:11:00,
2013-02-21 17:16:00,50.4,22.8,30.00,East,98,3.3,7.4,34,0.00,,,0.00,WUHU216WMR968SP,2013-02-21 22:16:00,
2013-02-21 17:21:00,50.4,22.8,30.00,NE,34,0.0,7.4,34,0.00,,,0.00,WUHU216WMR968SP,2013-02-21 22:21:00,
2013-02-21 17:26:00,50.2,22.7,30.00,ESE,102,0.0,6.0,34,0.00,,,0.00,WUHU216WMR968SP,2013-02-21 22:26:00,
2013-02-21 17:31:00,50.2,22.7,30.00,ESE,108,0.0,4.1,34,0.00,,,0.00,WUHU216WMR968SP,2013-02-21 22:31:00,
2013-02-21 17:36:00,50.2,23.4,30.00,ESE,108,0.0,4.1,35,0.00,,,0.00,WUHU216WMR968SP,2013-02-21 22:36:00,
2013-02-21 17:41:00,50.0,23.2,30.00,ESE,108,0.0,0.0,35,0.00,,,0.00,WUHU216WMR968SP,2013-02-21 22:41:00,
2013-02-21 17:46:00,50.0,23.2,30.00,ENE,76,3.3,6.0,35,0.00,,,0.00,WUHU216WMR968SP,2013-02-21 22:46:00,
2013-02-21 17:51:00,49.8,23.7,30.00,East,100,0.0,6.0,36,0.00,,,0.00,WUHU216WMR968SP,2013-02-21 22:51:00,
2013-02-21 17:56:00,49.8,23.7,30.00,NNE,32,0.0,6.0,36,0.00,,,0.00,WUHU216WMR968SP,2013-02-21 22:56:00,
2013-02-21 18:01:00,49.8,23.7,30.00,NNW,331,0.0,6.0,36,0.00,,,0.00,WUHU216WMR968SP,2013-02-21 23:01:00,
2013-02-21 18:06:00,49.6,23.5,30.00,NNW,331,0.0,0.0,36,0.00,,,0.00,WUHU216WMR968SP,2013-02-21 23:06:00,
2013-02-21 18:11:00,49.3,23.2,30.00,NNW,331,0.0,0.0,36,0.00,,,0.00,WUHU216WMR968SP,2013-02-21 23:11:00,
2013-02-21 18:16:00,49.1,23.7,30.00,NNW,331,0.0,0.0,37,0.00,,,0.00,WUHU216WMR968SP,2013-02-21 23:16:00,
2013-02-21 18:21:00,48.7,23.4,30.00,NNW,332,0.0,0.0,37,0.00,,,0.00,WUHU216WMR968SP,2013-02-21 23:21:00,
2013-02-21 18:26:00,48.4,23.7,30.00,WSW,248,0.0,0.0,38,0.00,,,0.00,WUHU216WMR968SP,2013-02-21 23:26:00,
2013-02-21 18:31:00,47.8,23.2,30.00,WSW,248,0.0,0.0,38,0.00,,,0.00,WUHU216WMR968SP,2013-02-21 23:31:00,
2013-02-21 18:36:00,47.5,24.2,30.03,WSW,248,0.0,0.0,40,0.00,,,0.00,WUHU216WMR968SP,2013-02-21 23:36:00,
2013-02-21 18:41:00,46.8,25.3,30.03,WSW,248,0.0,0.0,43,0.00,,,0.00,WUHU216WMR968SP,2013-02-21 23:41:00,
2013-02-21 18:46:00,46.4,27.7,30.03,WSW,248,0.0,0.0,48,0.00,,,0.00,WUHU216WMR968SP,2013-02-21 23:46:00,
2013-02-21 18:51:00,45.5,28.9,30.06,East,87,0.0,0.0,52,0.00,,,0.00,WUHU216WMR968SP,2013-02-21 23:51:00,
2013-02-21 18:56:00,44.4,29.7,30.06,East,87,0.0,0.0,56,0.00,,,0.00,WUHU216WMR968SP,2013-02-21 23:56:00,
2013-02-21 19:01:00,43.9,30.1,30.06,East,87,0.0,0.0,58,0.00,,,0.00,WUHU216WMR968SP,2013-02-22 00:01:00,
2013-02-21 19:06:00,43.3,31.2,30.09,East,87,0.0,0.0,62,0.00,,,0.00,WUHU216WMR968SP,2013-02-22 00:06:00,
2013-02-21 19:11:00,42.8,32.0,30.09,East,87,0.0,0.0,66,0.00,,,0.00,WUHU216WMR968SP,2013-02-22 00:11:00,
2013-02-21 19:16:00,42.4,33.8,30.09,East,86,0.0,0.0,70,0.00,,,0.00,WUHU216WMR968SP,2013-02-22 00:16:00,
2013-02-21 19:21:00,42.3,33.8,30.06,East,84,0.0,5.4,72,0.00,,,0.00,WUHU216WMR968SP,2013-02-22 00:21:00,
2013-02-21 19:26:00,41.7,33.8,30.06,East,84,0.0,5.4,75,0.00,,,0.00,WUHU216WMR968SP,2013-02-22 00:26:00,
2013-02-21 19:31:00,41.7,33.8,30.06,East,84,0.0,0.0,75,0.00,,,0.00,WUHU216WMR968SP,2013-02-22 00:31:00,
2013-02-21 19:36:00,41.5,33.8,30.03,East,84,0.0,0.0,76,0.00,,,0.00,WUHU216WMR968SP,2013-02-22 00:36:00,
2013-02-21 19:41:00,41.4,33.8,30.03,East,86,0.0,0.0,77,0.00,,,0.00,WUHU216WMR968SP,2013-02-22 00:41:00,
2013-02-21 19:46:00,41.4,33.8,30.03,East,82,0.0,0.0,77,0.00,,,0.00,WUHU216WMR968SP,2013-02-22 00:46:00,
2013-02-21 19:51:00,41.4,33.8,30.03,East,82,0.0,0.0,76,0.00,,,0.00,WUHU216WMR968SP,2013-02-22 00:51:00,
2013-02-21 19:56:00,41.4,33.8,30.03,East,82,0.0,0.0,75,0.00,,,0.00,WUHU216WMR968SP,2013-02-22 00:56:00,
2013-02-21 20:01:00,41.4,33.8,30.03,East,80,0.0,0.0,76,0.03,,,0.03,WUHU216WMR968SP,2013-02-22 01:01:00,
2013-02-21 20:06:00,41.4,33.8,30.03,East,80,0.0,0.0,76,0.03,,,0.03,WUHU216WMR968SP,2013-02-22 01:06:00,
2013-02-21 20:11:00,41.4,33.8,30.03,East,80,0.0,0.0,76,0.03,,,0.03,WUHU216WMR968SP,2013-02-22 01:11:00,
2013-02-21 20:16:00,41.4,33.8,30.03,East,80,0.0,0.0,77,0.03,,,0.03,WUHU216WMR968SP,2013-02-22 01:16:00,
2013-02-21 20:21:00,41.2,33.8,30.03,East,80,0.0,0.0,77,0.03,,,0.03,WUHU216WMR968SP,2013-02-22 01:21:00,
2013-02-21 20:26:00,41.2,33.8,30.03,East,80,0.0,0.0,77,0.03,,,0.03,WUHU216WMR968SP,2013-02-22 01:26:00,
2013-02-21 20:31:00,41.2,33.8,30.03,SW,236,0.0,0.0,77,0.03,,,0.03,WUHU216WMR968SP,2013-02-22 01:31:00,
2013-02-21 20:36:00,40.8,35.6,30.06,SW,236,0.0,0.0,79,0.03,,,0.03,WUHU216WMR968SP,2013-02-22 01:36:00,
2013-02-21 20:42:00,40.6,35.6,30.06,East,81,0.0,0.0,80,0.03,,,0.03,WUHU216WMR968SP,2013-02-22 01:42:00,
2013-02-21 20:46:00,40.5,35.6,30.06,East,81,0.0,0.0,82,0.08,,,0.08,WUHU216WMR968SP,2013-02-22 01:46:00,
2013-02-21 20:52:00,40.3,35.6,30.06,ESE,111,0.0,0.0,83,0.08,,,0.08,WUHU216WMR968SP,2013-02-22 01:52:00,
2013-02-21 20:57:00,40.3,35.6,30.06,ESE,111,0.0,0.0,83,0.08,,,0.08,WUHU216WMR968SP,2013-02-22 01:57:00,
2013-02-21 21:02:00,40.1,37.4,30.06,East,91,0.0,0.0,84,0.09,,,0.12,WUHU216WMR968SP,2013-02-22 02:02:00,
2013-02-21 21:07:00,39.9,35.6,30.06,SE,130,0.0,0.0,85,0.09,,,0.12,WUHU216WMR968SP,2013-02-22 02:07:00,
2013-02-21 21:12:00,39.9,35.6,30.06,SW,234,0.0,0.0,85,0.13,,,0.16,WUHU216WMR968SP,2013-02-22 02:12:00,
2013-02-21 21:17:00,39.7,35.6,30.06,SSE,156,3.3,6.0,85,0.18,,,0.21,WUHU216WMR968SP,2013-02-22 02:17:00,
2013-02-21 21:22:00,39.7,35.6,30.12,NW,304,0.0,6.0,85,0.18,,,0.21,WUHU216WMR968SP,2013-02-22 02:22:00,
2013-02-21 21:27:00,39.7,35.6,30.12,South,179,0.0,5.4,86,0.22,,,0.25,WUHU216WMR968SP,2013-02-22 02:27:00,
2013-02-21 21:32:00,39.6,35.6,30.12,SSE,160,0.0,5.4,87,0.22,,,0.25,WUHU216WMR968SP,2013-02-22 02:32:00,
2013-02-21 21:37:00,39.4,35.6,30.09,SSE,160,0.0,4.1,87,0.26,,,0.30,WUHU216WMR968SP,2013-02-22 02:37:00,
2013-02-21 21:42:00,39.4,35.6,30.09,SSE,162,0.0,0.0,87,0.31,,,0.34,WUHU216WMR968SP,2013-02-22 02:42:00,
2013-02-21 21:47:00,39.4,35.6,30.09,SSE,162,0.0,0.0,87,0.26,,,0.34,WUHU216WMR968SP,2013-02-22 02:47:00,
2013-02-21 21:52:00,39.4,35.6,30.12,SSE,162,0.0,0.0,87,0.26,,,0.34,WUHU216WMR968SP,2013-02-22 02:52:00,
2013-02-21 21:57:00,39.4,35.6,30.12,East,99,0.0,6.0,89,0.26,,,0.34,WUHU216WMR968SP,2013-02-22 02:57:00,
2013-02-21 22:02:00,39.4,35.6,30.12,ESE,119,0.0,6.0,89,0.26,,,0.38,WUHU216WMR968SP,2013-02-22 03:02:00,
2013-02-21 22:07:00,39.4,35.6,30.12,ESE,116,0.0,4.1,89,0.26,,,0.38,WUHU216WMR968SP,2013-02-22 03:07:00,
2013-02-21 22:12:00,39.6,37.4,30.12,ESE,116,0.0,4.1,90,0.22,,,0.38,WUHU216WMR968SP,2013-02-22 03:12:00,
2013-02-21 22:17:00,39.6,37.4,30.12,SSE,149,0.0,4.6,90,0.18,,,0.38,WUHU216WMR968SP,2013-02-22 03:17:00,
2013-02-21 22:22:00,39.6,37.4,30.12,ESE,109,0.0,4.6,91,0.22,,,0.43,WUHU216WMR968SP,2013-02-22 03:22:00,
2013-02-21 22:27:00,39.6,37.4,30.12,ESE,109,0.0,4.1,91,0.18,,,0.43,WUHU216WMR968SP,2013-02-22 03:27:00,
2013-02-21 22:32:00,39.6,37.4,30.12,ESE,109,0.0,0.0,91,0.18,,,0.43,WUHU216WMR968SP,2013-02-22 03:32:00,
2013-02-21 22:37:00,39.6,37.4,30.12,ESE,108,0.0,0.0,91,0.18,,,0.47,WUHU216WMR968SP,2013-02-22 03:37:00,
2013-02-21 22:42:00,39.4,37.4,30.12,ESE,106,0.0,0.0,92,0.13,,,0.47,WUHU216WMR968SP,2013-02-22 03:42:00,
2013-02-21 22:47:00,39.4,37.4,30.12,ESE,106,0.0,0.0,92,0.13,,,0.47,WUHU216WMR968SP,2013-02-22 03:47:00,
2013-02-21 22:52:00,39.4,37.4,30.09,NNW,337,0.0,0.0,92,0.18,,,0.52,WUHU216WMR968SP,2013-02-22 03:52:00,
2013-02-21 22:57:00,39.4,37.4,30.09,ENE,70,0.0,0.0,92,0.18,,,0.52,WUHU216WMR968SP,2013-02-22 03:57:00,
2013-02-21 23:02:00,39.4,37.4,30.09,ENE,70,0.0,0.0,92,0.13,,,0.52,WUHU216WMR968SP,2013-02-22 04:02:00,
2013-02-21 23:07:00,39.4,37.4,30.12,ENE,70,0.0,0.0,92,0.13,,,0.52,WUHU216WMR968SP,2013-02-22 04:07:00,
2013-02-21 23:12:00,39.4,37.4,30.12,ENE,70,0.0,0.0,92,0.13,,,0.52,WUHU216WMR968SP,2013-02-22 04:12:00,
2013-02-21 23:17:00,39.4,37.4,30.12,ENE,70,0.0,0.0,92,0.09,,,0.52,WUHU216WMR968SP,2013-02-22 04:17:00,
2013-02-21 23:22:00,39.4,37.4,30.09,ENE,70,0.0,0.0,92,0.09,,,0.52,WUHU216WMR968SP,2013-02-22 04:22:00,
2013-02-21 23:27:00,39.4,37.4,30.09,ENE,70,0.0,0.0,92,0.13,,,0.56,WUHU216WMR968SP,2013-02-22 04:27:00,
2013-02-21 23:32:00,39.4,37.4,30.09,ENE,70,0.0,0.0,92,0.13,,,0.56,WUHU216WMR968SP,2013-02-22 04:32:00,
2013-02-21 23:37:00,39.4,37.4,30.09,ENE,70,0.0,0.0,93,0.09,,,0.56,WUHU216WMR968SP,2013-02-22 04:37:00,
2013-02-21 23:42:00,39.4,37.4,30.09,ENE,70,0.0,0.0,93,0.09,,,0.56,WUHU216WMR968SP,2013-02-22 04:42:00,
2013-02-21 23:47:00,39.6,37.4,30.09,ENE,70,0.0,0.0,93,0.09,,,0.56,WUHU216WMR968SP,2013-02-22 04:47:00,
2013-02-21 23:52:00,39.6,37.4,30.09,ENE,70,0.0,0.0,93,0.09,,,0.60,WUHU216WMR968SP,2013-02-22 04:52:00,
2013-02-21 23:57:00,39.6,37.4,30.09,ENE,70,0.0,0.0,93,0.09,,,0.60,WUHU216WMR968SP,2013-02-22 04:57:00,